[[{"header":{"parameterUnit":"m.s-1","parameterCategory":1,"la1":30.2991,"la2":30.254,"lo1":-89.0895,"lo2":-89.0444,"dy":0.0017,"dx":0.0017,"nx":28,"ny":28,"refTime":"2025-04-16T03:00:00:Z","depth":0,"parameterNumber":2,"parameterNumberName":"U-component_of_WINDS"},"data":[0,0,0,0,0,0,0,0,0,0,0,0,0,0,0,0,0,0,0,0,0,0,0,0,0,0,0,0,0,0,0,0,0,0,0,0,0,0,0,0,0,0,0,0,0,0,0,0,0,0,0,0,0,0,0,0,0,0,-0.5587,-0.5586,0,-0.5471,-0.547,-0.5469,-0.534,-0.5338,-0.5336,-0.5335,-0.5217,-0.5216,-0.5214,0,0,0,0,0,0,0,0,0,0,0,0,0,-0.5701,-0.5699,-0.5587,-0.5586,-0.5584,-0.5471,-0.547,-0.5468,-0.534,-0.5338,-0.5336,-0.5334,-0.5217,-0.5216,-0.5214,0,0,0,0,0,0,0,0,0,0,0,0,0,-0.5625,-0.5699,-0.5587,-0.5507,-0.5498,-0.5472,-0.547,-0.5468,-0.5341,-0.5338,-0.5335,-0.5333,-0.5218,-0.5216,-0.5214,-0.5257,0,0,-0.5208,-0.5207,0,0,0,0,0,0,0,0,-0.5629,-0.5621,-0.552,-0.5512,-0.5503,-0.5417,-0.5466,-0.5397,-0.5342,-0.5401,-0.5334,-0.5331,-0.5286,-0.5278,-0.5263,-0.5252,-0.5247,-0.5207,-0.5206,-0.5205,-0.5205,0,0,0,0,0,0,0,-0.5635,-0.5625,-0.5541,-0.5519,-0.5508,-0.5477,-0.5464,-0.5453,-0.5361,-0.5395,-0.5386,-0.5374,-0.5281,-0.5265,-0.5259,-0.5245,-0.5208,-0.5206,-0.5204,-0.5204,-0.5266,-0.5269,0,0,0,0,0,0,-0.5652,-0.563,-0.5545,-0.5538,-0.556,-0.5478,-0.5462,-0.5448,-0.536,-0.5344,-0.5376,-0.5368,-0.527,-0.5261,-0.5254,-0.53,-0.5205,-0.5203,-0.5202,-0.5264,-0.5267,-0.527,0,0,0,0,0,0,-0.5655,-0.5645,-0.555,-0.5581,-0.5567,-0.5479,-0.5463,-0.5447,-0.5431,-0.5346,-0.5329,-0.5377,-0.5267,-0.5257,-0.5258,-0.5294,-0.5202,-0.5201,-0.526,-0.5265,-0.5269,-0.5392,0,0,0,0,0,0,-0.5659,-0.5647,-0.5662,-0.5583,-0.5566,-0.5555,-0.5466,-0.5447,-0.5427,-0.5416,-0.5342,-0.5327,-0.5264,-0.5262,-0.5256,-0.529,-0.5199,-0.5256,-0.5262,-0.5267,-0.5385,-0.54,-0.5414,0,0,0,0,0,-0.5663,-0.5701,-0.5663,-0.5654,-0.5582,-0.5557,-0.5547,-0.5474,-0.5431,-0.5445,-0.5391,-0.5329,-0.5292,-0.5263,-0.5255,-0.5289,-0.5254,-0.526,-0.5267,-0.5378,-0.5397,-0.5414,0,0,0,0,0,0,-0.5787,-0.5689,-0.5646,-0.566,-0.5618,-0.5535,-0.5551,-0.5496,-0.5466,-0.5456,-0.5367,-0.5352,-0.5363,-0.5326,-0.5296,-0.5328,-0.5264,-0.5269,-0.5351,-0.5369,-0.5383,-0.5392,-0.5197,0,0,0,0,0,-0.5816,-0.5803,-0.5719,-0.5739,-0.572,-0.564,-0.5626,-0.5574,-0.5527,-0.5508,-0.5454,-0.5411,-0.539,-0.5377,-0.5352,-0.5379,-0.5362,-0.5399,-0.5414,-0.5426,-0.5432,-0.5444,-0.546,-0.5292,-0.5292,-0.5292,0,0,-0.5876,-0.5821,-0.5818,-0.5763,-0.5724,-0.5713,-0.5626,-0.5618,-0.561,-0.5507,-0.5504,-0.5464,-0.541,-0.5425,-0.5428,-0.5394,-0.5475,-0.5434,-0.5445,-0.5443,-0.5453,-0.5469,-0.5483,-0.5296,-0.5295,-0.5295,0,0,-0.5979,-0.5936,-0.5948,-0.5912,-0.5854,-0.5801,-0.5805,-0.5731,-0.57,-0.5696,-0.5619,-0.5609,-0.5573,-0.5539,-0.5517,-0.561,-0.5552,-0.5605,-0.5681,-0.5694,-0.5708,-0.5719,-0.5753,-0.5766,-0.5611,-0.5611,-0.5611,0,-0.606,-0.6041,-0.5962,-0.5959,-0.5938,-0.5845,-0.5858,-0.5827,-0.5765,-0.5752,-0.5715,-0.567,-0.5627,-0.5633,-0.5656,-0.5641,-0.5643,-0.5612,-0.5712,-0.5723,-0.5732,-0.5763,-0.5776,-0.5618,-0.5617,-0.5616,-0.5616,0,-0.6144,-0.6132,-0.6149,-0.6092,-0.6072,-0.6078,-0.6001,-0.5991,-0.5941,-0.5893,-0.5891,-0.5837,-0.5801,-0.5799,-0.5749,-0.5798,-0.5779,-0.5728,-0.5662,-0.5756,-0.5784,-0.5796,-0.5627,-0.5625,-0.5623,-0.5621,0,0,-0.632,-0.6221,-0.6228,-0.6202,-0.6133,-0.6122,-0.6125,-0.6089,-0.6083,-0.6044,-0.6044,-0.6018,-0.5971,-0.5946,-0.5893,-0.5905,-0.5984,-0.5852,-0.585,-0.5879,-0.6035,-0.6073,-0.6088,-0.5945,-0.5947,-0.5949,-0.604,0,-0.6411,-0.6407,-0.6338,-0.6355,-0.6344,-0.6257,-0.6259,-0.6218,-0.6173,-0.6158,-0.6109,-0.6092,-0.6031,-0.6016,-0.6024,-0.5972,-0.6014,-0.5965,-0.5945,-0.5946,-0.5961,-0.6103,-0.6142,-0.623,-0.605,-0.6052,-0.6053,0,-0.6515,-0.6483,-0.6499,-0.6431,-0.6424,-0.6427,-0.639,-0.6376,-0.6328,-0.6295,-0.6269,-0.6209,-0.6208,-0.6147,-0.6144,-0.6113,-0.6101,-0.6075,-0.6077,-0.6071,-0.6005,-0.6102,-0.6256,-0.627,-0.6069,-0.6068,-0.6067,0,-0.6643,-0.6603,-0.6608,-0.6588,-0.6509,-0.6513,-0.6481,-0.643,-0.6414,-0.6382,-0.6371,-0.634,-0.6323,-0.6301,-0.6234,-0.6196,-0.6241,-0.6173,-0.6214,-0.6215,-0.6226,-0.6226,-0.6381,-0.6219,-0.6219,-0.6219,-0.6219,0,-0.6751,-0.6764,-0.6664,-0.6667,-0.668,-0.6601,-0.6617,-0.6576,-0.6533,-0.6527,-0.6451,-0.6447,-0.636,-0.6347,-0.6296,-0.6303,-0.6295,-0.6269,-0.6255,-0.6276,-0.6279,-0.6266,-0.6258,-0.6222,-0.6222,-0.6221,-0.622,0,-0.6894,-0.6828,-0.6827,-0.6753,-0.6735,-0.6748,-0.6685,-0.6685,-0.6637,-0.6631,-0.6626,-0.655,-0.6531,-0.6463,-0.6428,-0.6393,-0.6417,-0.639,-0.6433,-0.6424,-0.6468,-0.6465,-0.662,-0.6637,-0.6465,-0.6467,-0.6468,0,-0.6967,-0.6975,-0.6903,-0.6894,-0.6864,-0.685,-0.6834,-0.6758,-0.6744,-0.6692,-0.6699,-0.6674,-0.665,-0.6625,-0.6567,-0.6541,-0.6512,-0.6569,-0.6508,-0.6529,-0.6514,-0.6514,-0.6515,-0.6582,-0.6584,-0.6586,-0.6587,0,-0.7104,-0.7072,-0.705,-0.7018,-0.7,-0.6972,-0.6938,-0.6936,-0.6851,-0.6839,-0.6819,-0.6801,-0.6766,-0.6743,-0.6707,-0.6674,-0.6618,-0.6607,-0.6615,-0.6636,-0.6661,-0.6648,-0.6469,-0.6604,-0.6602,-0.6601,-0.66,-0.6599,-0.7214,-0.7218,-0.7168,-0.7148,-0.7115,-0.7086,-0.7083,-0.7035,-0.7017,-0.6982,-0.6939,-0.6925,-0.6879,-0.6825,-0.6798,-0.6786,-0.6755,-0.6766,-0.6769,-0.6773,-0.6783,-0.6663,-0.678,-0.6779,-0.6779,-0.6778,-0.6778,0,-0.7348,-0.7312,-0.7293,-0.725,-0.7234,-0.7182,-0.7144,-0.7134,-0.7123,-0.7085,-0.7063,-0.7042,-0.702,-0.6962,-0.6934,-0.6937,-0.691,-0.6932,-0.6931,-0.6925,-0.6813,-0.6809,-0.6954,-0.6954,-0.6954,-0.6954,-0.6954,-0.6954,-0.7415,-0.7419,-0.7381,-0.7369,-0.7333,-0.7318,-0.7301,-0.7275,-0.7244,-0.7224,-0.7205,-0.7167,-0.7122,-0.7091,-0.7069,-0.7053,-0.7046,-0.7077,-0.7053,-0.6949,-0.6932,-0.6916,-0.6912,-0.7076,-0.7077,-0.7165,-0.7166,-0.7166]},{"header":{"parameterUnit":"m.s-1","parameterCategory":1,"la1":30.2991,"la2":30.254,"lo1":-89.0895,"lo2":-89.0444,"dy":0.0017,"dx":0.0017,"nx":28,"ny":28,"refTime":"2025-04-16T03:00:00:Z","depth":0,"parameterNumber":3,"parameterNumberName":"V-component_of_WINDS"},"data":[0,0,0,0,0,0,0,0,0,0,0,0,0,0,0,0,0,0,0,0,0,0,0,0,0,0,0,0,0,0,0,0,0,0,0,0,0,0,0,0,0,0,0,0,0,0,0,0,0,0,0,0,0,0,0,0,0,0,3.034,3.034,0,3.0346,3.0346,3.0346,3.0388,3.0389,3.039,3.0391,3.0391,3.039,3.039,0,0,0,0,0,0,0,0,0,0,0,0,0,3.0362,3.0361,3.034,3.034,3.034,3.0346,3.0346,3.0346,3.0388,3.0389,3.039,3.0392,3.0392,3.0391,3.0389,0,0,0,0,0,0,0,0,0,0,0,0,0,3.0358,3.0361,3.034,3.0362,3.0364,3.0346,3.0346,3.0346,3.0388,3.0389,3.0391,3.0392,3.0392,3.0391,3.0389,3.0349,0,0,3.0385,3.0384,0,0,0,0,0,0,0,0,3.0358,3.0357,3.0359,3.036,3.0363,3.0368,3.0354,3.0347,3.0387,3.0378,3.0391,3.0393,3.0382,3.0381,3.0379,3.0349,3.0349,3.0385,3.0384,3.0383,3.0383,0,0,0,0,0,0,0,3.0358,3.0357,3.0342,3.0359,3.0361,3.037,3.0371,3.0352,3.0371,3.0379,3.0382,3.0383,3.0383,3.038,3.0379,3.0349,3.0385,3.0383,3.0383,3.0382,3.0285,3.0284,0,0,0,0,0,0,3.0356,3.0357,3.0342,3.0342,3.0364,3.0369,3.037,3.0365,3.0371,3.0374,3.0381,3.0385,3.0382,3.0381,3.0379,3.0332,3.0383,3.0382,3.0381,3.0287,3.0285,3.0283,0,0,0,0,0,0,3.0357,3.0354,3.0342,3.0351,3.035,3.0367,3.036,3.0364,3.0361,3.0373,3.0376,3.0375,3.0383,3.0381,3.0356,3.0332,3.0381,3.038,3.0289,3.0286,3.0284,3.0237,0,0,0,0,0,0,3.0357,3.0354,3.034,3.035,3.0349,3.032,3.0359,3.0363,3.0359,3.0363,3.0368,3.037,3.0384,3.0358,3.0355,3.0331,3.0379,3.0291,3.0288,3.0285,3.024,3.0233,3.0226,0,0,0,0,0,3.0358,3.0325,3.0339,3.0337,3.0332,3.0318,3.0318,3.0336,3.0357,3.0342,3.035,3.037,3.0336,3.0355,3.0352,3.0327,3.0293,3.0289,3.0285,3.0244,3.0234,3.0227,0,0,0,0,0,0,3.031,3.0327,3.0342,3.0313,3.0314,3.0326,3.0307,3.0326,3.032,3.0324,3.0345,3.0346,3.0317,3.032,3.0341,3.0289,3.0318,3.0313,3.0288,3.0279,3.0272,3.0271,3.0377,0,0,0,0,0,3.0296,3.0286,3.0301,3.0273,3.0273,3.029,3.0285,3.0299,3.03,3.0301,3.0307,3.0306,3.0295,3.0288,3.0278,3.0242,3.0243,3.0223,3.0216,3.0211,3.0206,3.0186,3.0177,3.0271,3.0271,3.0271,0,0,3.0267,3.0275,3.0267,3.0263,3.0266,3.0253,3.029,3.0274,3.0264,3.0298,3.0275,3.0279,3.028,3.0249,3.0236,3.025,3.018,3.0206,3.0201,3.0199,3.0181,3.0172,3.0164,3.0268,3.0269,3.0269,0,0,3.0207,3.0213,3.0191,3.0193,3.0198,3.0209,3.0204,3.0213,3.0218,3.0196,3.0221,3.0208,3.019,3.0189,3.0186,3.0128,3.0145,3.0124,3.0086,3.0067,3.006,3.0053,3.0031,3.0023,3.0119,3.0119,3.0119,0,3.017,3.0153,3.0176,3.0159,3.0157,3.0189,3.0165,3.0166,3.0166,3.0163,3.018,3.0158,3.0161,3.013,3.0116,3.0113,3.0106,3.0123,3.0059,3.0053,3.0047,3.0027,3.0018,3.0117,3.0117,3.0117,3.0117,0,3.0106,3.0094,3.0075,3.0077,3.0072,3.0052,3.0071,3.0063,3.0078,3.0088,3.0065,3.0069,3.0062,3.0056,3.0069,3.0027,3.0036,3.0056,3.0085,3.0035,3.0016,3.0008,3.0113,3.0114,3.0114,3.0115,0,0,3.0015,3.0031,3.0023,3.0025,3.0033,3.0023,3.0004,2.9998,2.9991,2.999,2.9974,2.9958,2.9977,2.9974,2.9988,2.9971,2.9924,2.9994,2.9994,2.9979,2.9876,2.9859,2.985,2.9937,2.9935,2.9934,2.9875,0,2.9957,2.9927,2.9948,2.9913,2.9902,2.9933,2.9916,2.9918,2.9927,2.9918,2.9927,2.9915,2.9941,2.994,2.9925,2.9933,2.9903,2.9937,2.992,2.9919,2.9917,2.984,2.9823,2.9767,2.9868,2.9867,2.9866,0,2.9884,2.9883,2.9848,2.9859,2.9854,2.9839,2.9836,2.9827,2.983,2.9838,2.9835,2.9853,2.9834,2.9865,2.9838,2.9861,2.9856,2.9859,2.9857,2.9855,2.9888,2.9834,2.975,2.9741,2.9855,2.9855,2.9856,0,2.982,2.9809,2.9787,2.9787,2.9799,2.9787,2.9792,2.9797,2.9792,2.9789,2.9786,2.978,2.9776,2.977,2.9786,2.9807,2.9757,2.9789,2.9761,2.976,2.9747,2.9748,2.9659,2.9746,2.9746,2.9746,2.9746,0,2.9752,2.9729,2.9758,2.9744,2.9719,2.9743,2.9717,2.9724,2.9729,2.9716,2.9742,2.9729,2.9752,2.9741,2.9753,2.9729,2.9727,2.9731,2.9734,2.9728,2.9727,2.9723,2.9727,2.9744,2.9745,2.9745,2.9745,0,2.9674,2.9693,2.9671,2.9685,2.9688,2.9669,2.968,2.9667,2.9679,2.9662,2.9659,2.9676,2.9665,2.9681,2.967,2.9679,2.9645,2.9655,2.9644,2.9646,2.9617,2.9619,2.9522,2.951,2.9605,2.9605,2.9604,0,2.9629,2.9612,2.9625,2.962,2.9623,2.9613,2.9609,2.9632,2.9626,2.9629,2.9615,2.9607,2.9601,2.9581,2.9591,2.9583,2.9592,2.9559,2.9591,2.9585,2.959,2.959,2.9588,2.9551,2.955,2.9549,2.9548,0,2.9546,2.9556,2.9551,2.9548,2.9543,2.9542,2.9542,2.9535,2.9559,2.9552,2.9541,2.9537,2.9528,2.9518,2.9513,2.9516,2.9535,2.9539,2.9531,2.9524,2.9518,2.952,2.9625,2.954,2.9541,2.9541,2.9542,2.9542,2.9482,2.9469,2.9477,2.9469,2.9472,2.9472,2.9461,2.9472,2.9464,2.9459,2.9473,2.9459,2.9463,2.9459,2.9459,2.9448,2.9462,2.9452,2.9449,2.9446,2.9441,2.9521,2.9447,2.9447,2.9448,2.9448,2.9448,0,2.94,2.9407,2.94,2.9401,2.9394,2.9416,2.9418,2.9411,2.9399,2.9401,2.9396,2.9383,2.9374,2.9385,2.9378,2.9366,2.9375,2.9363,2.9364,2.9364,2.9429,2.9436,2.9356,2.9356,2.9356,2.9356,2.9356,2.9356,2.9356,2.9335,2.9346,2.9326,2.9333,2.9321,2.932,2.932,2.9322,2.9308,2.9301,2.9309,2.9314,2.9308,2.93,2.9303,2.9299,2.9284,2.929,2.935,2.9359,2.9368,2.9374,2.9283,2.9283,2.9225,2.9225,2.9224]}]]